Overview Statistics Trail Chart Weather Telemetry Raw packets
 

This is the latest recevied weather packets stored in our database for station/object OK1LPD-5. If no packets are shown the sender has not sent any weather packets the latest 10 day(s).

<< 1 2 3 4 5 6 >>
Time Temp. Humidity Pressure Rain* Wind** Luminosity Snow
1788542409 26.11° C 66% 1001.7 hPa 0 mm - - -
1788541810 26.67° C 65% 1001.4 hPa 0 mm - - -
1788541210 26.67° C 64% 1001.4 hPa 0 mm - - -
1788540610 27.22° C 64% 1001.2 hPa 0 mm - - -
1788540010 27.22° C 63% 1001.1 hPa 0 mm - - -
1788539409 27.78° C 64% 1001.2 hPa 0 mm - - -
1788538809 27.78° C 63% 1001.3 hPa 0 mm - - -
1788538234 27.78° C 63% 1001.3 hPa 0 mm - - -
1788537610 28.33° C 64% 1001.3 hPa 0 mm - - -
1788537010 28.33° C 64% 1001.1 hPa 0 mm - - -
1788536409 28.33° C 64% 1001.3 hPa 0 mm - - -
1788535809 27.78° C 65% 1001.4 hPa 0 mm - - -
1788535222 28.33° C 65% 1001.5 hPa 0 mm - - -
1788534610 28.89° C 64% 1001.6 hPa 0 mm - - -
1788534010 28.89° C 63% 1001.7 hPa 0 mm - - -
1788533409 28.33° C 64% 1001.9 hPa 0 mm - - -
1788532809 28.89° C 63% 1002 hPa 0 mm - - -
1788532208 30° C 61% 1002.2 hPa 0 mm - - -
1788531609 30.56° C 60% 1002.5 hPa 0 mm - - -
1788531010 29.44° C 63% 1002.5 hPa 0 mm - - -
1788530410 29.44° C 64% 1002.7 hPa 0 mm - - -
1788529810 29.44° C 64% 1003 hPa 0 mm - - -
1788529208 29.44° C 64% 1003.2 hPa 0 mm - - -
1788528608 29.44° C 64% 1003.4 hPa 0 mm - - -
1788528010 29.44° C 64% 1003.8 hPa 0 mm - - -

* Rain latest hour (hover to see other rain measurements)
** Current wind speed in m/s (hover to see current wind gust speed)